Weather in Naroch

Belarus     54°56′00″N   26°41′18″E
temp.,
°C
wind,
m/s
gust,
m/s
humid.,
%
clouds,
%
prec.,
mm/h
press.,
hPa
HPBL,
m
12 april, mon
mon1200:00+9sse41278100 0.0 1024243
03:00+8sse51374100 0.0 1025289
06:00+7sse4137597 0.0 1024271
09:00+9sse5126472 0.0 1024460
12:00+14sse7114381 0.0 10231366
15:00+15sse79394 0.0 10211666
18:00+15sse58464 0.0 10191497
21:00+10sse3766100 0.0 1020105
13 april, tue
tue1300:00+9sse4116883 0.0 1020278
03:00+8s497197 0.0 1020230
06:00+8s257497 0.0 1020123
09:00+9sw2375100 0.0 1020201
12:00+10nw328496 0.0 1021449
15:00+7nnw5687100 0.1 1022413
18:00+6nnw6784100 0.0 1021428
21:00+4n5990100 0.0 1021353
14 april, wed
wed1400:00+4n5988100 0.0 1020384
03:00+4n61182100 0.0 1018464
06:00+3n61083100 0.3 1018530
09:00+3n61187100 1.8 1018515
12:00+2n51197100 0.8 1018451
15:00+2n51098100 2.5 1019399
18:00+2n61197100 1.3 1018405
21:00+2nne51098100 3.3 1018384
15 april, thu
thu1500:00+2nne51098100 0.5 1018347
03:00+2nne51098100 0.8 1018376
06:00+3nne51098100 0.3 1017350
09:00+4nne4998100 0.4 1018324
12:00+4nne4997100 1.6 1018370
15:00+4nne4897100 5.3 1018446
18:00+4nne4897100 1.1 1018512
21:00+4ne3898100 1.1 1018398
16 april, fri
fri1600:00+4nne3799100 0.0 1018285
03:00+4nne3799100 0.0 1018281
06:00+5nne4899100 0.0 1018341
09:00+5nne4898100 0.0 1019380
12:00+7nne4997100 0.4 1019396
15:00+11ne71078100 0.4 1019859
18:00+10ne81284100 0.0 1020797
21:00+9ne71488100 0.0 1021603